Location: Unspecified
(52.1605°N, 0.0000°E)
Time: 06:31:23
(UTC+00:00)

BB3 - Visible Passes

Search period start: 04 April 2026 00:00
Search period end: 14 April 2026 00:00
Orbit: 659 x 893 km, 81.0° (Epoch: 29 March)

Date Brightness Start Highest point End Pass type
(mag) Time Alt. Az. Time Alt. Az. Time Alt. Az.
4 Apr ? 01:40:18 10° N 01:44:17 24° ENE 01:47:52 11° ESE visible
4 Apr ? 03:21:17 10° NNW 03:26:01 53° W 03:28:15 28° SSW visible
5 Apr ? 01:06:33 10° NNE 01:09:30 16° NE 01:12:22 10° E visible
5 Apr ? 02:46:48 10° NNW 02:51:42 89° WSW 02:53:36 36° S visible
5 Apr ? 04:30:07 10° NW 04:32:11 13° W 04:33:59 11° WSW visible
6 Apr ? 00:34:01 10° NE 00:34:37 10° NE 00:35:12 10° NE visible
6 Apr ? 02:12:29 10° N 02:17:15 55° ENE 02:19:02 34° SE visible
6 Apr ? 03:54:38 10° NW 03:58:10 21° W 03:59:26 19° WSW visible
7 Apr ? 01:38:18 10° N 01:42:42 34° ENE 01:44:33 25° ESE visible
7 Apr ? 03:19:45 10° NNW 03:24:03 34° W 03:24:57 31° WSW visible
8 Apr ? 01:04:17 10° N 01:08:02 22° ENE 01:10:06 17° E visible
8 Apr ? 02:45:08 10° NNW 02:49:49 57° W 02:50:30 51° SW visible
9 Apr ? 00:30:37 10° NNE 00:33:14 14° NE 00:35:43 10° E visible
9 Apr ? 02:10:41 10° NNW 02:15:28 85° ENE 02:16:08 66° SSE visible
9 Apr ? 03:53:46 10° NW 03:56:03 14° W 03:56:31 13° W visible
10 Apr ? 01:36:22 10° N 01:41:01 51° ENE 01:41:46 46° ESE visible
10 Apr ? 03:18:23 10° NW 03:22:00 22° W 03:22:10 22° W visible
11 Apr ? 01:02:12 10° N 01:06:27 31° ENE 01:07:27 29° E visible
11 Apr ? 02:43:33 10° NNW 02:47:51 36° W 02:47:51 36° W visible
12 Apr ? 00:28:14 10° NNE 00:31:45 20° ENE 00:33:09 18° E visible
12 Apr ? 02:08:57 10° NNW 02:13:34 62° W 02:13:34 62° W visible
12 Apr ? 23:54:40 10° NNE 23:56:56 13° NE 23:58:53 11° E visible
13 Apr ? 01:34:30 10° NNW 01:39:13 79° ENE 01:39:18 79° E visible
13 Apr ? 03:17:23 10° NW 03:19:42 14° W 03:19:42 14° W visible
